Location: Bukit Nyuki
(2.5885°N, 113.7476°E)
Time: 06:39:41
(UTC+00:00)

Cosmos 1356 - Pass Details

Date: 18 May 2021
Orbit: 437 x 442 km, 81.1° (Epoch: 22 June)

Event Time Altitude Azimuth Distance (km) Brightness Sun altitude
Exits shadow 21:32:59 - 204° (SSW) 1,789 6.0 -10.5°
Reaches altitude 10° 21:33:35 10° 207° (SSW) 1,558 5.7 -10.4°
Maximum altitude 21:36:44 36° 275° (W) 719 4.0 -9.6°
Drops below altitude 10° 21:39:52 10° 344° (NNW) 1,552 6.2 -8.9°
Sets 21:42:01 0° 353° (N) 2,418 7.3 -8.4°
